Temp
16 16 17 17 17 16 15 15 15 14 13 13 13 13 13 12 12 11 11 11 11 11 11 11 11 10 11 11 11 11 11 11 11 11 12 12 12 12 12 12 12 12 11
13 15 17 18 18 17 16 15 15 14 14 14 13 13 12 12 12 11 11 11 10 10 10 10 10 10 10 10 10 10 10 10 11 10 10 11 12 12 12 12 12 11 11
12 13 15 16 17 17 17 16 15 15 14 13 13 13 12 12 12 12 11 10 10 10 10 9 9 9 10 10 10 10 10 10 10 10 9 10 10 11 11 12 11 11 11
9 10 12 14 15 16 16 15 15 14 14 13 13 13 12 12 12 11 10 10 10 10 10 9 9 9 9 9 9 9 9 9 9 9 9 9 9 9 9 10 10 10 11
7 9 10 11 12 13 14 14 14 13 13 13 12 12 11 11 11 11 10 10 9 9 9 8 9 9 9 9 9 9 9 9 9 9 9 9 8 8 8 8 9 10 10
7 7 8 8 10 11 11 12 12 13 12 12 11 11 11 11 10 11 11 11 10 10 8 8 8 8 8 8 8 8 8 8 8 8 8 8 8 8 8 8 8 8 9
7 7 8 8 8 9 9 10 10 10 10 10 10 10 10 10 10 10 11 10 10 8 7 7 7 7 7 8 8 8 8 8 8 8 8 7 8 7 7 7 7 7 7
6 7 7 8 8 8 9 9 10 10 9 9 9 9 9 10 10 10 10 9 8 8 9 9 9 9 9 9 8 8 7 8 8 8 8 7 7 7 7 7 6 6 6
5 6 6 7 8 8 8 8 9 9 9 9 9 9 9 9 9 9 9 9 8 8 8 8 9 8 8 8 8 8 8 7 8 8 8 8 8 7 7 6 6 6 4
3 4 5 6 6 7 7 8 8 8 8 8 8 9 9 8 8 8 8 8 8 8 8 8 8 8 8 8 7 7 7 7 7 7 7 7 8 7 7 6 6 5 5
3 4 4 5 5 6 7 7 7 8 8 8 8 8 8 8 8 8 8 8 7 8 7 7 7 7 7 7 7 6 6 6 6 7 6 6 6 6 6 6 5 5 4
3 3 4 4 4 5 5 6 6 7 7 7 7 7 7 7 7 7 7 7 7 7 7 6 6 6 6 6 6 6 5 5 5 5 5 5 6 6 6 5 5 5 4
2 2 2 3 4 4 5 5 5 5 5 5 6 6 6 6 6 6 6 6 6 6 6 6 6 5 5 5 5 5 4 4 4 4 4 4 4 5 5 5 5 5 3
2 2 2 3 3 4 4 4 5 5 5 5 5 5 5 5 5 5 5 5 5 5 6 5 5 5 5 5 4 4 4 4 4 3 2 3 3 3 4 4 4 4 3
1 2 2 2 3 3 3 4 4 4 4 4 4 4 4 4 4 5 5 5 5 5 5 4 4 4 4 4 3 3 3 3 3 3 2 2 2 3 3 3 3 3 3
1 1 2 2 2 3 3 3 3 3 3 3 3 4 4 4 4 4 4 4 4 4 4 4 3 3 3 3 3 3 3 3 3 3 3 3 2 2 3 3 2 3 3
1 1 2 2 2 2 2 2 2 2 2 3 3 3 3 3 3 3 3 3 3 3 3 3 3 3 3 3 2 2 2 1 1 1 2 2 2 1 1 2 2 2 2
1 1 1 1 1 1 1 1 2 2 2 2 2 2 2 2 2 2 2 2 2 2 2 2 3 2 2 2 0 -1 -0 -1 -2 -2 -1 -1 -0 0 1 1 2 1 1
1 1 1 1 1 1 1 1 1 1 1 1 1 1 1 0 0 1 1 1 1 1 2 2 2 2 2 1 1 -1 -3 -3 -3 -3 -3 -2 -1 -0 0 0 0 -0 -1
1 0 0 0 -0 -0 -0 -0 -0 -0 -0 0 -0 -0 -0 -0 -0 -0 -0 -0 -0 0 1 1 1 1 2 1 -0 -3 -3 -3 -3 -2 -2 -1 -1 -1 -0 0 -1 -1 -2
-0 -1 -1 -1 -1 -1 -1 -1 -1 -1 -0 -1 -1 -1 -1 -1 -1 -1 -1 -1 -1 -0 0 0 1 1 0 1 0 -3 -3 -3 -3 -2 -2 -1 -1 -1 -1 -1 -1 -1 -2
-1 -1 -1 -1 -1 -1 -2 -2 -1 -1 -1 -2 -2 -2 -2 -2 -2 -2 -2 -2 -2 -1 -1 -0 0 -0 -1 0 0 -1 -3 -3 -3 -2 -1 -1 -1 -1 -1 -2 -2 -2 -3
-1 -1 -2 -2 -2 -2 -2 -2 -2 -2 -2 -2 -3 -3 -3 -3 -3 -3 -3 -3 -3 -2 -2 -2 -2 -2 -3 -2 -2 -3 -3 -3 -2 -2 -1 -1 -2 -2 -3 -3 -3 -3 -3
-2 -2 -3 -3 -3 -3 -3 -3 -3 -3 -4 -4 -4 -4 -4 -4 -4 -4 -4 -4 -3 -3 -3 -4 -5 -4 -5 -5 -4 -3 -3 -3 -2 -2 -2 -2 -3 -3 -3 -3 -3 -3 -4
-3 -3 -3 -3 -3 -4 -4 -5 -5 -5 -5 -5 -5 -5 -5 -4 -4 -5 -5 -4 -4 -4 -5 -5 -6 -7 -6 -5 -5 -4 -3 -3 -3 -2 -2 -3 -3 -3 -3 -3 -3 -4 -4
-3 -4 -4 -5 -5 -5 -6 -6 -6 -6 -6 -6 -6 -6 -6 -6 -6 -6 -5 -5 -5 -5 -4 -4 -7 -7 -6 -6 -5 -4 -3 -2 -2 -2 -2 -3 -3 -3 -4 -4 -4 -4 -4
Height
1519 1520 1523 1525 1528 1532 1536 1540 1544 1548 1552 1555 1557 1560 1562 1564 1565 1567 1568 1569 1570 1570 1571 1571 1571 1570 1570 1570 1570 1569 1569 1568 1567 1566 1565 1564 1563 1563 1562 1561 1561 1561 1561
1515 1516 1518 1520 1523 1527 1531 1536 1540 1544 1548 1552 1555 1558 1561 1562 1564 1565 1566 1567 1567 1568 1568 1568 1568 1568 1568 1567 1567 1566 1566 1565 1565 1564 1563 1561 1561 1559 1558 1557 1557 1557 1557
1513 1513 1514 1516 1519 1522 1526 1531 1536 1540 1545 1549 1552 1555 1558 1560 1561 1563 1564 1564 1565 1565 1566 1566 1565 1565 1565 1565 1564 1564 1563 1562 1562 1562 1563 1561 1558 1557 1556 1555 1554 1554 1553
1514 1513 1513 1514 1515 1518 1522 1527 1532 1536 1540 1545 1549 1552 1555 1558 1559 1560 1561 1561 1562 1562 1562 1562 1562 1561 1561 1561 1561 1560 1559 1559 1559 1558 1558 1558 1557 1555 1553 1551 1551 1551 1550
1516 1515 1514 1515 1515 1517 1520 1524 1528 1532 1536 1540 1544 1548 1552 1554 1556 1558 1559 1559 1561 1561 1560 1559 1558 1558 1557 1557 1557 1556 1555 1555 1554 1554 1553 1553 1552 1551 1550 1546 1546 1546 1546
1518 1517 1517 1518 1518 1519 1521 1524 1527 1530 1534 1537 1541 1545 1548 1550 1552 1554 1556 1557 1558 1558 1556 1554 1553 1553 1552 1552 1551 1551 1550 1549 1548 1548 1547 1547 1547 1546 1546 1543 1542 1540 1540
1520 1519 1520 1520 1521 1522 1523 1525 1528 1530 1533 1536 1539 1543 1545 1548 1549 1551 1552 1553 1554 1553 1551 1550 1548 1547 1547 1546 1545 1544 1542 1542 1541 1541 1541 1541 1540 1539 1538 1537 1536 1534 1532
1520 1521 1521 1521 1523 1525 1526 1528 1529 1530 1533 1537 1539 1541 1543 1545 1547 1549 1550 1550 1549 1548 1546 1546 1545 1544 1542 1540 1539 1537 1536 1536 1534 1533 1533 1532 1533 1532 1531 1530 1530 1527 1525
1520 1521 1523 1524 1524 1525 1527 1529 1531 1532 1534 1536 1539 1541 1542 1543 1545 1546 1547 1546 1545 1544 1543 1542 1540 1539 1537 1535 1533 1532 1530 1528 1527 1526 1526 1525 1525 1524 1523 1522 1522 1521 1518
1521 1523 1524 1526 1527 1527 1528 1530 1532 1534 1536 1537 1539 1540 1542 1543 1543 1543 1543 1542 1542 1541 1540 1538 1536 1534 1532 1530 1527 1526 1524 1521 1520 1518 1516 1516 1515 1514 1513 1512 1511 1511 1510
1520 1523 1525 1528 1529 1531 1532 1531 1533 1534 1536 1538 1539 1540 1541 1542 1542 1541 1541 1540 1538 1537 1536 1534 1532 1530 1527 1525 1522 1519 1517 1514 1512 1511 1507 1506 1506 1503 1502 1502 1501 1500 1501
1519 1522 1525 1527 1528 1530 1533 1534 1534 1535 1536 1537 1538 1539 1539 1540 1540 1539 1538 1537 1536 1533 1532 1530 1528 1525 1523 1520 1516 1513 1510 1507 1504 1502 1500 1497 1497 1493 1492 1491 1490 1488 1489
1518 1522 1525 1527 1529 1529 1531 1534 1534 1535 1537 1537 1537 1537 1537 1537 1537 1537 1536 1534 1532 1530 1527 1524 1521 1519 1516 1514 1511 1506 1502 1499 1496 1494 1491 1489 1487 1484 1483 1481 1479 1478 1476
1515 1519 1523 1526 1528 1529 1529 1532 1534 1535 1536 1536 1536 1536 1536 1535 1534 1533 1532 1530 1528 1526 1524 1521 1517 1514 1511 1508 1503 1499 1495 1491 1488 1485 1483 1481 1479 1476 1474 1470 1467 1465 1465
1512 1517 1520 1524 1525 1527 1528 1530 1533 1534 1535 1534 1534 1534 1534 1532 1531 1530 1529 1527 1525 1522 1519 1516 1513 1510 1507 1503 1498 1493 1488 1484 1479 1475 1472 1470 1468 1467 1466 1463 1458 1459 1456
1510 1514 1519 1523 1524 1525 1527 1529 1530 1531 1532 1532 1531 1530 1530 1529 1528 1527 1525 1523 1521 1518 1515 1511 1507 1503 1501 1498 1494 1488 1481 1478 1472 1467 1465 1462 1457 1454 1453 1452 1448 1447 1448
1506 1511 1516 1520 1522 1524 1525 1527 1528 1529 1529 1529 1528 1528 1527 1526 1525 1523 1521 1519 1516 1513 1510 1506 1501 1497 1493 1489 1485 1481 1475 1469 1464 1459 1454 1450 1447 1443 1443 1441 1439 1436 1437
1506 1512 1515 1519 1521 1522 1524 1526 1527 1527 1526 1525 1524 1524 1523 1522 1521 1519 1517 1514 1511 1508 1504 1500 1496 1491 1488 1483 1477 1473 1466 1460 1454 1450 1445 1441 1436 1434 1432 1432 1430 1430 1430
1505 1511 1514 1517 1519 1521 1523 1524 1525 1525 1524 1523 1522 1521 1519 1517 1516 1513 1511 1508 1505 1502 1498 1494 1489 1484 1481 1478 1474 1468 1460 1453 1447 1440 1437 1433 1427 1426 1425 1425 1424 1424 1424
1506 1510 1513 1515 1517 1519 1520 1521 1521 1522 1522 1521 1519 1518 1516 1514 1512 1510 1506 1504 1500 1496 1492 1488 1484 1479 1474 1472 1467 1463 1457 1447 1443 1435 1428 1424 1420 1418 1416 1414 1418 1420 1424
1504 1508 1511 1514 1516 1517 1518 1519 1519 1519 1518 1518 1516 1514 1512 1510 1508 1506 1503 1499 1495 1491 1487 1481 1477 1473 1468 1463 1460 1456 1450 1444 1436 1427 1422 1415 1414 1411 1411 1414 1417 1420 1422
1502 1506 1509 1512 1514 1514 1515 1516 1516 1515 1515 1514 1513 1511 1509 1507 1505 1501 1498 1495 1491 1485 1481 1475 1470 1465 1461 1457 1450 1446 1442 1438 1432 1424 1418 1415 1411 1412 1413 1415 1418 1420 1422
1501 1504 1507 1509 1511 1512 1513 1512 1512 1512 1511 1509 1509 1508 1505 1503 1500 1497 1493 1489 1487 1480 1475 1470 1464 1459 1453 1450 1445 1440 1434 1431 1426 1421 1417 1414 1414 1414 1415 1417 1418 1420 1423
1501 1503 1505 1507 1508 1509 1509 1508 1508 1507 1506 1506 1504 1503 1501 1498 1496 1493 1488 1484 1482 1478 1472 1467 1461 1453 1448 1444 1442 1433 1429 1424 1420 1416 1414 1413 1415 1416 1417 1417 1419 1421 1423
1499 1502 1504 1505 1506 1506 1505 1505 1504 1503 1502 1501 1500 1498 1495 1492 1488 1486 1482 1478 1478 1474 1467 1462 1458 1451 1444 1441 1439 1431 1425 1420 1416 1414 1412 1412 1414 1415 1416 1418 1419 1421 1423
1499 1500 1502 1502 1503 1503 1502 1501 1500 1499 1497 1496 1494 1493 1489 1486 1484 1478 1474 1473 1471 1467 1464 1458 1454 1448 1442 1437 1433 1427 1421 1415 1412 1412 1410 1411 1413 1414 1416 1417 1419 1421 1422
Wind_Speed
9 11 12 14 19 21 21 19 18 17 16 15 13 9 6 5 5 6 6 7 7 8 9 9 10 11 12 12 13 14 14 15 14 16 15 14 15 15 16 15 14 13 12
7 10 13 15 18 19 21 22 20 18 17 15 12 9 5 4 3 3 4 6 7 9 10 11 12 12 13 13 14 15 16 16 15 16 16 12 14 14 15 14 14 14 14
4 6 9 14 18 21 22 23 22 21 19 18 16 13 10 5 2 2 2 4 6 8 10 12 13 14 14 14 15 16 17 18 17 16 13 8 5 10 13 14 14 16 16
8 7 6 9 14 19 21 22 23 22 20 20 19 17 12 7 5 3 3 4 6 7 9 12 14 15 16 15 16 17 18 20 20 20 19 19 21 16 12 13 11 14 15
11 11 10 9 11 15 18 20 22 21 21 20 19 19 17 13 10 8 8 7 9 11 13 13 15 15 17 17 17 19 20 21 23 22 23 23 23 25 25 26 21 17 17
15 16 15 14 13 13 14 16 17 18 18 17 18 18 17 16 14 13 11 13 14 15 17 17 16 16 17 18 19 21 23 23 25 25 26 26 27 25 25 26 29 28 27
16 18 18 19 19 17 16 15 14 15 14 14 13 13 13 14 12 12 14 15 16 17 16 17 18 19 20 21 23 25 27 26 27 27 28 28 29 29 30 31 33 32 31
17 17 18 19 19 19 18 17 16 16 13 11 10 10 10 9 9 11 14 16 17 17 17 17 19 21 24 25 25 26 28 28 29 29 29 29 30 31 32 33 33 33 32
19 19 19 19 19 18 17 16 15 14 13 11 9 7 5 5 7 9 10 11 12 14 15 17 18 19 20 22 24 27 28 29 29 30 33 35 35 34 34 34 35 35 26
21 21 21 21 21 20 20 18 17 16 14 12 9 7 4 2 1 4 6 9 11 14 16 17 19 19 20 21 22 25 28 30 31 32 33 35 37 36 35 36 38 38 38
23 22 21 20 19 18 17 17 16 15 13 11 9 6 5 4 4 5 8 10 13 15 17 20 22 23 24 24 24 25 26 28 31 32 33 34 34 36 35 36 38 39 38
24 22 21 19 18 17 16 15 14 11 11 9 7 5 5 5 7 8 11 13 15 17 19 21 23 24 25 26 26 27 27 28 30 32 34 35 33 35 35 35 37 40 42
24 21 19 18 17 16 14 12 11 10 9 7 6 5 5 7 9 11 14 16 18 21 23 26 27 29 29 29 29 29 29 30 31 30 32 34 34 36 36 38 39 39 42
25 22 19 17 15 14 12 10 9 8 6 6 6 7 9 11 14 16 18 20 22 24 26 28 29 29 30 29 29 30 32 33 34 34 33 35 35 36 36 40 36 39 38
25 22 19 17 15 12 11 9 7 6 6 7 8 10 12 14 15 17 19 20 22 25 27 28 27 26 26 27 28 29 32 34 36 36 37 36 36 37 36 39 34 35 36
26 22 19 17 14 12 10 8 6 6 7 8 10 12 13 15 17 19 21 22 24 26 27 28 29 28 26 27 27 29 32 34 36 37 37 37 37 40 39 37 37 38 36
28 24 20 16 13 11 9 6 5 6 6 9 11 13 15 17 18 20 21 24 26 28 29 30 31 31 30 31 31 32 32 33 35 36 38 38 40 38 39 38 39 36 37
28 23 19 15 12 9 7 5 5 5 7 9 11 12 14 16 18 20 23 25 26 28 29 29 31 32 31 31 29 32 35 36 37 37 36 37 36 37 38 35 32 38 31
26 21 17 13 10 7 5 3 5 6 8 9 12 14 16 18 20 21 23 24 26 27 29 31 32 32 32 30 28 34 34 35 36 35 37 33 32 32 35 31 30 33 24
23 19 15 11 8 5 3 4 5 7 9 11 14 16 18 19 20 21 22 24 26 28 30 30 32 32 33 29 27 30 32 37 41 41 37 32 30 24 27 30 29 23 19
21 16 12 8 5 2 2 4 6 8 10 12 14 16 17 19 21 22 23 24 26 28 30 32 33 35 35 32 32 30 33 37 40 39 37 31 26 19 24 19 13 11 11
17 12 8 6 4 2 2 5 8 10 12 14 15 17 18 19 21 23 24 25 27 29 31 33 35 35 36 34 33 33 34 40 29 29 26 23 21 20 10 9 8 9 10
15 13 10 6 3 3 6 8 10 12 13 15 16 18 19 20 21 24 25 27 28 30 33 34 37 40 39 38 35 31 34 32 25 26 25 22 14 9 9 6 8 7 7
14 10 7 4 3 5 8 11 12 13 15 16 18 20 21 22 22 24 25 27 28 30 32 34 36 40 40 38 38 31 36 32 25 19 22 12 10 9 8 11 9 8 5
10 7 5 4 5 7 10 12 13 15 17 18 19 20 22 23 25 25 26 27 26 28 31 33 33 36 39 38 33 30 35 30 22 21 11 16 14 11 11 12 11 9 5
8 6 4 5 7 8 10 13 14 16 19 21 22 23 25 26 27 29 31 27 28 29 30 32 28 31 32 35 28 26 30 21 18 17 18 17 13 10 12 14 14 9 6
Wind_Direction
201 206 213 217 216 214 214 214 211 207 208 208 209 214 225 236 242 245 252 266 277 290 298 299 298 296 294 292 294 298 301 303 305 304 301 297 290 282 276 272 269 264 265
203 212 218 213 210 210 210 209 209 206 207 210 214 217 220 232 241 266 283 288 289 292 296 298 299 298 294 293 295 295 297 299 301 300 305 307 299 286 275 271 265 261 263
143 182 196 199 206 205 203 203 203 205 208 213 215 217 218 219 187 86 30 324 296 293 295 295 296 297 295 293 293 294 293 293 293 293 285 295 283 297 292 284 273 267 267
93 114 145 173 186 191 194 196 200 205 208 213 217 222 223 223 216 227 276 298 298 291 297 301 294 291 290 292 293 290 290 289 290 288 282 277 273 279 290 286 274 274 271
88 93 102 126 154 170 181 186 192 197 202 207 212 219 224 231 238 246 265 288 301 293 292 294 291 288 285 287 289 291 291 288 285 283 283 279 276 271 268 279 284 280 278
98 97 97 102 118 139 156 167 178 183 190 197 202 210 218 230 238 250 261 275 279 284 286 290 279 276 275 276 278 279 280 282 282 281 279 278 276 276 275 274 278 283 279
114 111 110 107 108 115 126 140 153 160 169 184 193 203 217 231 244 256 266 271 274 278 285 290 289 285 285 283 280 276 274 275 277 279 280 279 277 275 274 274 275 277 278
123 120 118 117 115 114 117 121 128 134 141 150 160 174 189 208 231 249 257 271 282 292 298 298 296 294 293 292 282 280 279 282 278 278 279 281 280 278 274 272 272 273 273
128 124 122 122 123 123 120 120 122 125 130 135 140 153 177 217 247 266 282 298 310 314 316 315 313 309 303 297 290 283 281 277 276 278 277 278 280 281 277 272 267 266 261
129 124 121 119 117 117 117 119 119 119 116 118 122 123 126 125 340 334 330 329 328 326 324 322 320 317 314 308 300 292 286 281 278 275 273 274 276 277 276 273 267 262 260
138 132 125 121 117 116 118 117 117 116 115 109 101 96 80 49 10 344 340 336 334 330 329 328 326 324 320 315 310 304 298 291 286 281 279 279 277 276 276 275 270 263 259
144 140 135 130 127 121 115 111 108 106 101 93 82 64 43 18 358 350 345 341 337 336 333 330 327 324 320 317 313 307 301 295 291 287 282 280 280 278 278 276 275 266 260
148 143 139 136 130 123 118 111 104 96 89 77 62 46 20 2 353 349 346 344 341 338 336 333 330 327 324 321 319 316 311 302 294 292 290 289 287 283 281 280 278 280 260
154 150 146 139 133 125 117 108 100 89 74 51 31 16 6 2 357 350 344 340 338 335 333 330 327 325 323 320 314 310 307 305 303 296 289 289 288 287 286 281 279 272 267
157 155 149 144 136 128 119 108 92 73 51 30 17 10 4 355 346 339 335 332 330 329 328 326 323 322 322 320 313 310 304 301 300 299 299 292 287 288 283 283 277 277 267
159 155 152 148 140 131 120 102 82 56 34 16 8 1 350 344 339 335 332 330 328 327 326 325 323 322 322 323 318 314 305 297 295 296 294 296 297 283 278 280 282 268 264
162 159 157 152 141 129 115 101 79 49 21 6 356 349 344 339 335 332 330 328 328 328 327 328 326 325 326 326 326 321 315 304 298 295 295 294 291 289 289 275 284 271 256
162 160 155 148 138 125 111 86 54 19 2 355 348 342 337 334 332 331 331 330 330 330 329 329 329 328 328 333 332 327 321 316 311 306 300 301 293 286 279 282 274 257 227
161 157 152 146 137 124 103 61 24 6 358 352 347 343 341 338 336 333 330 329 328 328 328 331 333 333 331 332 331 335 328 318 311 308 308 306 298 290 286 276 259 213 215
156 153 150 144 134 125 94 39 6 354 346 345 344 340 337 334 332 330 328 328 327 328 329 329 331 330 329 327 328 338 331 323 319 313 307 297 295 297 277 252 208 211 204
151 150 145 143 132 97 11 342 337 331 334 335 332 330 330 330 329 328 327 326 327 326 327 328 329 331 333 332 331 331 334 328 315 312 312 307 297 249 212 213 202 201 204
146 147 152 168 182 204 298 314 319 325 328 326 326 326 327 327 326 326 328 329 329 330 328 327 326 328 331 332 330 331 334 331 307 311 315 301 258 214 209 188 187 188 187
161 170 177 182 205 294 309 311 313 316 316 319 322 322 324 325 327 328 329 330 331 329 328 328 327 328 331 328 332 334 333 328 309 303 293 299 254 204 169 169 166 172 191
168 171 176 194 245 288 301 306 309 313 317 321 322 323 324 325 324 325 328 330 331 330 327 327 323 325 326 325 329 333 330 323 323 290 273 262 191 173 169 174 177 187 208
167 178 206 244 282 297 303 308 311 315 317 318 317 318 318 320 320 321 325 326 327 327 324 322 319 319 317 318 320 324 322 315 307 276 214 173 181 187 185 182 186 197 212
191 212 247 287 300 305 307 307 310 313 314 314 316 317 317 318 319 320 319 320 321 322 320 320 316 316 310 313 312 316 322 313 280 251 197 185 190 203 194 195 193 199 226